Weather History for Holloman AFB, NM

Change the Weather History Date:

Saturday, May 10, 2014

  Actual Average Record
Temperature  
Mean Temperature 68 °F -  
Max Temperature 86 °F 83 °F 91 °F (2000)
Min Temperature 50 °F 52 °F 44 °F (2007)
Cooling Degree Days 3    
Growing Degree Days 18 (Base 50)    
Moisture  
Dew Point 16 °F    
Average Humidity 11    
Maximum Humidity 23    
Minimum Humidity 7    
Precipitation  
Precipitation 0.00 in - - ()
Sea Level Pressure  
Sea Level Pressure 29.71 in    
Wind  
Wind Speed 9 mph (SSW)    
Max Wind Speed 23 mph    
Max Gust Speed 31 mph    
Visibility 10 miles    
Events      
Averages and records for this station are not official NWS values.
T = Trace of Precipitation, MM = Missing Value Source: NWS Daily Summary

Daily Weather History Graph

Daily Weather History Graph

Search for Another Location

Airport:

Trip Planner

Search our weather history database for the weather conditions in past years. The results will help you decide how hot, cold, wet, or windy it might be!

Date:

Astronomy

May. 10, 2014 Rise Set
Actual Time 6:09 AM MDT 7:53 PM MDT
Civil Twilight 5:42 AM MDT 8:19 PM MDT
Nautical Twilight 5:09 AM MDT 8:52 PM MDT
Astronomical Twilight 4:35 AM MDT 9:26 PM MDT
Moon 4:04 PM MDT (5/10) 3:29 AM MDT (5/10)
Length of Visible Light 14h 37m
Length of Day
13h 43m
Waxing Gibbous, 82% of the Moon is Illuminated
May 10
Waxing Gibbous
May 14
Full
May 21
Last Quarter
May 28
New
Jun 5
First Quarter

Hourly Weather History & Observations

Time (MDT) Temp. Dew Point Humidity Pressure Visibility Wind Dir Wind Speed Gust Speed Precip Events Conditions
12:58 AM 58.6 °F 12.7 °F 16% 29.76 in 10.0 mi SSE 6.9 mph - N/A   Clear
1:58 AM 60.4 °F 14.2 °F 16% 29.73 in 10.0 mi SSE 5.8 mph - N/A   Clear
2:58 AM 63.7 °F 13.8 °F 14% 29.72 in 10.0 mi SSE 2.3 mph - N/A   Clear
3:58 AM 55.9 °F 13.5 °F 19% 29.75 in 10.0 mi East 2.3 mph - N/A   Clear
4:58 AM 50.2 °F 12.9 °F 23% 29.77 in 10.0 mi ESE 4.6 mph - N/A   Clear
5:58 AM 55.2 °F 14.4 °F 20% 29.76 in 10.0 mi SE 4.6 mph - N/A   Clear
6:58 AM 55.9 °F 16.9 °F 22% 29.77 in 10.0 mi SE 5.8 mph - N/A   Clear
7:58 AM 61.3 °F 16.5 °F 18% 29.77 in 10.0 mi SE 6.9 mph - N/A   Clear
8:58 AM 68.5 °F 17.8 °F 14% 29.77 in 10.0 mi SSE 4.6 mph - N/A   Clear
9:58 AM 74.5 °F 17.6 °F 12% 29.75 in 10.0 mi NW 2.3 mph - N/A   Clear
10:58 AM 77.2 °F 19.2 °F 11% 29.74 in 10.0 mi SW 8.1 mph - N/A   Clear
11:58 AM 79.7 °F 16.5 °F 9% 29.72 in 10.0 mi SSE 5.8 mph - N/A   Clear
12:37 PM 82.4 °F 17.6 °F 9% 29.88 in 10.0 mi SW 13.8 mph 19.6 mph N/A   Partly Cloudy
12:58 PM 82.9 °F 19.0 °F 9% 29.70 in 10.0 mi South 6.9 mph 23.0 mph N/A   Partly Cloudy
1:19 PM 82.4 °F 19.4 °F 10% 29.86 in 10.0 mi South 11.5 mph 19.6 mph N/A   Clear
1:58 PM 83.7 °F 19.6 °F 9% 29.65 in 10.0 mi South 11.5 mph 21.9 mph N/A   Partly Cloudy
2:14 PM 84.2 °F 17.6 °F 8% 29.83 in 10.0 mi SSW 12.7 mph 18.4 mph N/A   Partly Cloudy
2:38 PM 86.0 °F 17.6 °F 8% 29.82 in 10.0 mi SSW 23.0 mph 31.1 mph N/A   Partly Cloudy
2:44 PM 86.0 °F 17.6 °F 8% 29.82 in 10.0 mi WSW 17.3 mph 31.1 mph N/A   Clear
2:50 PM 86.0 °F 19.4 °F 9% 29.82 in 10.0 mi West 20.7 mph 25.3 mph N/A   Clear
2:57 PM 84.2 °F 17.6 °F 8% 29.82 in 10.0 mi SW 18.4 mph 25.3 mph N/A   Clear
2:58 PM 84.7 °F 17.6 °F 8% 29.62 in 10.0 mi SSW 17.3 mph 25.3 mph N/A   Clear
3:18 PM 86.0 °F 17.6 °F 8% 29.80 in 10.0 mi South 18.4 mph 25.3 mph N/A   Clear
3:58 PM 85.8 °F 18.5 °F 8% 29.59 in 10.0 mi SSW 17.3 mph 23.0 mph N/A   Clear
4:58 PM 86.0 °F 15.4 °F 7% 29.58 in 10.0 mi SW 17.3 mph 28.8 mph N/A   Clear
5:58 PM 85.6 °F 15.3 °F 7% 29.55 in 10.0 mi SW 23.0 mph 28.8 mph N/A   Clear
6:04 PM 86.0 °F 15.8 °F 7% 29.74 in 10.0 mi WSW 19.6 mph 29.9 mph N/A   Clear
6:10 PM 86.0 °F 15.8 °F 7% 29.74 in 10.0 mi SSW 18.4 mph 29.9 mph N/A   Clear
6:58 PM 84.6 °F 14.5 °F 7% 29.55 in 10.0 mi SSW 17.3 mph 25.3 mph N/A   Clear
7:58 PM 80.4 °F 11.3 °F 7% 29.55 in 10.0 mi SW 11.5 mph - N/A   Clear
8:58 PM 75.9 °F 13.5 °F 9% 29.55 in 10.0 mi SSW 11.5 mph - N/A   Clear
9:58 PM 72.1 °F 15.1 °F 11% 29.55 in 10.0 mi SSW 10.4 mph - N/A   Clear
10:58 PM 75.2 °F 15.4 °F 10% 29.55 in 10.0 mi SSW 15.0 mph - N/A   Clear
11:58 PM 67.1 °F 16.7 °F 14% 29.55 in 10.0 mi South 8.1 mph - N/A   Clear